Regional Weather Roundup
Issued by NWS Wakefield, VA

Home | Current Version | Previous Version | Graphics & Text | Print | Product List | Glossary On
Versions: 1 2 3 4 5 6 7 8 9 10 11 12 13 14 15 16 17 18 19 20 21 22 23 24 25 26 27 28 29 30 31 32 33 34 35 36 37 38 39 40 41 42 43 44 45 46 47 48 49 50
000
ASUS41 KAKQ 202214
RWRAKQ

REGIONAL WEATHER ROUNDUP
NATIONAL WEATHER SERVICE WAKEFIELD VA
600 PM EDT MON APR 20 2015

Note: "fair" indicates few or no clouds below 12,000 feet with no
significant weather and/or obstructions to visibility. * = Denotes
station may not report precipitation (e.g., rain,snow,etc.),
thunder or fog.

VAZ042-051-052>054-056-202300-
NORTHERN VIRGINIA

CITY           SKY/WX    TMP DP  RH WIND       PRES   REMARKS
WASH NATIONAL  TSTM      72  63  73 S16G40    29.54S SQUALL
DULLES         PTSUNNY   76  58  53 S9        29.52F
FORT BELVOIR   MOSUNNY   71  62  73 E3        29.53F
QUANTICO       HAIL      76  59  55 S13G24    29.53F HAZE
FREDERICKSBRG* PTSUNNY   81  59  45 S13G24    29.52F
STAFFORD*      MOSUNNY   79  55  44 S12G18    29.57F
WARRENTON      MOSUNNY   78  58  49 S10G17    29.52S
CULPEPER*      MOSUNNY   79  55  44 SW6       29.53S
MANASSAS*      MOSUNNY   77  57  50 S10G17    29.52F
LEESBURG*      MOSUNNY   79  61  53 S20G25    29.52S
WINCHESTER     MOSUNNY   79  48  34 S10G21    29.49F
FRONT ROYAL*   FAIR      77  57  50 S6        29.49S
LURAY*         FAIR      79  59  50 S20G28    29.52R
$$

VAZ048-049-060>072-079>083-202300-
CENTRAL AND SOUTH CENTRAL VIRGINIA

CITY           SKY/WX    TMP DP  RH WIND       PRES   REMARKS
RICHMOND       CLOUDY    77  60  55 S13       29.58F
CHESTERFIELD*  NOT AVBL
PETERSBURG*    CLOUDY    77  59  54 S7        29.60F
HANOVER        CLOUDY    77  60  55 S16G26    29.57F
TAPPAHANNOCK*  CLOUDY    75  60  59 SE5       29.58F
QUINTON*       FAIR      76  63  64 S6        29.59S
CHARLOTTSVILLE LGT RAIN  73  52  47 SW16G32   29.55R
GORDONSVILLE*  FAIR      77  53  43 SW15G26   29.53S
ORANGE*        PTSUNNY   77  54  44 S13G20    29.55S
LOUISA*        PTSUNNY   81  55  41 SW9       29.53F
BUMPASS*       FAIR      76  60  56 S5        29.54F
FARMVILLE*     CLOUDY    79  57  47 SW16G24   29.55S
CREWE*         FAIR      73  62  69 S6        29.58F
FORT PICKETT*  FAIR      73  62  67 S8G16     29.60F
CHASE CITY*    MOCLDY    68  64  87 S5        29.61R
CLARKSVILLE*   CLOUDY    68  59  73 CALM      29.60F
SOUTH HILL*    CLOUDY    73  63  70 CALM      29.67F
LAWRENCEVILLE* MOCLDY    73  63  68 S6        29.62F
EMPORIA*       CLOUDY    73  61  64 SE5       29.64S
$$

VAZ088>098-202300-
SOUTHEAST VIRGINIA

CITY           SKY/WX    TMP DP  RH WIND       PRES   REMARKS
NORFOLK        CLOUDY    77  60  55 S13G21    29.63S
VIRGINIA BEACH CLOUDY    79  61  53 S15       29.64S
NORFOLK NAVAL  NOT AVBL
WEST POINT*    CLOUDY    78  60  53 S8G16     29.60F
SALUDA*        FAIR      75  62  62 S8G21     29.59F
NEWPORT NEWS   CLOUDY    80  61  52 S15       29.61F
LANGLEY AFB    CLOUDY    77  62  60 S16       29.61F
FORT EUSTIS    CLOUDY    75  62  64 S7        29.59F
WILLIAMSBURG*  CLOUDY    79  64  61 S8        29.62F
HR EXEC AP*    FAIR      79  63  57 S13G20    29.64F
FRANKLIN*      CLOUDY   N/A N/A N/A S9G17     29.64S
WAKEFIELD      CLOUDY    77  62  59 VRB7      29.62S
$$

VAZ020-022-025-037-045-202300-
WEST CENTRAL AND SOUTHWEST VIRGINIA

CITY           SKY/WX    TMP DP  RH WIND       PRES   REMARKS
STAUNTON*      PTSUNNY   73  54  51 S12       29.55F
WAYNESBORO*    FAIR      68  51  52 S13G25    29.57R
HOT SPRINGS VA MOSUNNY   67  40  36 W16G25    29.62F
LYNCHBURG      CLOUDY    72  57  59 S23G33    29.56S
DANVILLE       CLOUDY    72  58  61 SW9       29.60F
SOUTH BOSTON*  FAIR      70  56  60 S3        29.61S
MARTINSVILLE   CLOUDY    73  56  54 SW10G21   29.61F
ROANOKE        TSTM      62  56  80 VRB6      29.59S
BLACKSBURG     PTSUNNY   65  52  63 S12G20    29.62F
DUBLIN*        RAIN      63  58  85 SW12      29.62R
MARION*        MOSUNNY   68  49  49 W13       29.63R
HILLSVILLE*    CLOUDY    63  51  66 S14G26    29.63S
RICHLANDS*     FAIR      67  43  41 SW16      29.61F
WISE*          MOSUNNY   66  41  39 SW17G29   29.65S
ABINGDON*      MOSUNNY   71  48  44 W17G26    29.62S
$$

MDZ021>025-VAZ099-100-202300-
SOUTHERN MARYLAND AND THE DELMARVA PENINSULA

CITY           SKY/WX    TMP DP  RH WIND       PRES   REMARKS
PATUXENT RIVER CLOUDY    68  60  75 SE9       29.56F
BAY BRIDGE APT   N/A    N/A N/A N/A SE12      29.56S
LEONARDTOWN    CLOUDY    75  57  53 S5        29.58F
DOVER          MOSUNNY   75  64  67 S16       29.55F
GEORGETOWN     MOSUNNY   74  62  66 S15       29.59F
EASTON         PTSUNNY   77  64  65 S13G22    29.62S
CAMBRIDGE      CLOUDY    73  61  64 S13G18    29.59S
SALISBURY      PTSUNNY   73  61  65 S10       29.60F
OCEAN CITY     MOSUNNY   59  56  89 S6        29.62F
WALLOPS ISLAND PTSUNNY   61  58  90 S13       29.64F
ACCOMACK*      CLOUDY    72  61  68 S9        29.62F
$$

NCZ012>017-030>032-202300-
NORTH CENTRAL AND EASTERN NORTH CAROLINA

CITY           SKY/WX    TMP DP  RH WIND       PRES   REMARKS
ROANOKE RAPIDS MOCLDY    73  63  68 S7G16     29.64S
RALEIGH        CLOUDY    72  62  71 SW12      29.65S
ELIZABETH CITY CLOUDY    76  62  62 S8        29.67S
AHOSKIE*       CLOUDY    74  62  64 S7        29.65S
EDENTON*       CLOUDY    76  63  63 S10       29.67F
CURRITUCK*     CLOUDY    77  60  55 S8        29.68S
KILL DEVIL HLS CLOUDY    73  66  77 S7        29.69R
MANTEO         CLOUDY    73  65  75 SW22      29.71R
CAPE HATTERAS  CLOUDY    67  64  90 SW13G21   29.75S
TARBORO*       FAIR      77  62  58 S9G17     29.66F
GOLDSBORO      CLOUDY    76  62  61 SW10G21   29.66S
WASHINGTON     CLOUDY    77  58  52 SW8       29.68F
GREENVILLE     CLOUDY    77  61  57 SW13      29.70F
NEW BERN       CLOUDY    75  64  68 S9        29.72F
WILMINGTON     CLOUDY    72  63  73 S13       29.73S
$$

VAZ048-202300-
ELSEWHERE

CITY           SKY/WX    TMP DP  RH WIND       PRES   REMARKS
HARRISBURG PA  PTSUNNY   65  59  81 E6        29.53F
BALTIMORE      CLOUDY    71  58  63 SE7       29.54S
ANNAPOLIS      CLOUDY    72  60  66 S13G18    29.55F
ANDREWS AFB    MOSUNNY   73  61  64 SW7       29.54F
PHILADELPHIA   PTSUNNY   74  61  63 S10       29.58F
HENDERSON NC   CLOUDY    73  59  62 S15       29.63S
GREENSBORO     CLOUDY    70  52  52 SW17G23   29.62F
ROCKY MOUNT    CLOUDY    76  63  64 S13       29.66S
$$

VAZ100-202300-
MARINE

STATION/POSITION TIME  TEMP    WIND        PRES    WAVE   SWELL
                       AIR SEA DIR/SP/G            HT/PER HT/PER
                 (UTC) (F)     (DEG/KT/KT) (MB)    (FT/S) (FT/S)
BRANDYWINE LGT   2100   57 53  160/ 17/ 18 1002.6F
CAPE MAY NJ      2100   63 55  160/ 11/ 15 1002.6F
LEWES DE         2100   71 49  160/ 11/ 14 1002.6F
15NM E FENWICK I 2150   52 48              1003.4F   9/ 9
OCEAN-CITY-INLET 2100   55 54  210/  9/ 10 1003.3F
WACHAPREAGUE VA  2100   66 68  190/  9/ 11 1003.7F
THOMAS POINT MD  2200   67 55  150/ 20/ 20 1000.9F
GOOSES REEF MD   2200   60 58  170/ 14/ 17   N/A     1/ 2
COVE POINT MD    2100   61     170/ 17/ 19 1001.4F
SOLOMONS ISLAND  2100      57                N/A
BISHOPS HEAD MD  2100   64 65  160/ 12/ 13 1002.1F
PINEY POINT MD   2100          200/ 12/ 15   N/A
CAMBRIDGE MD     2100   74 59  140/  7/ 15 1001.7F
LEWISETTA VA     2100   75 64              1001.8S
RAPPAHANNOCK LGT 2100          170/ 16/ 16 1003.6F
STINGRAY PT      2200   64 58  170/  8/ 10 1004.5F   1
YORK RVR RNG VA  2100   72     210/ 15/ 16 1002.8F
YORKTOWN VA      2100   77 60  200/ 12/ 17 1002.7F
DOMINION TERM VA 2100   73     220/ 12/ 14 1003.5F
KIPTOPEKE VA     2100      65  160/  4/  5   N/A
CHES BAY BRIDGE  2100   76 59  180/ 14/ 18 1003.1F
CAPE HENRY VA    2100   78     190/ 11/ 18 1002.4F
CHESAPEAKE LGHT  2100   65     180/ 22/ 22 1004.2F
WILLOUBY STN VA  2100   77     210/ 16/ 17 1004.1F
S CRANEY ISL VA  2100          190/ 12/ 17 1003.6F
CAPE HENRY BUOY  2128      57                N/A     6/ 8
1ST LANDING BUOY 2200   69     200/  8/ 12 1003.5F   3/ 6
OFFSHORE WE BUOY 2111      50                N/A     7/ 8   3/13
64NM E OF VA BCH 2150   60 56  190/ 14/ 16 1005.1F   8/ 8   7/ 8
DUCK PIER NC     2100   75 49  200/ 13/ 17 1004.1F
44056 DUCK FRF   2111      55                N/A     5/ 8   2/11
OREGON INLET NC  2100   69 67  180/ 15/ 17 1005.9F
HATTERAS NC      2100   70 68  210/ 12/ 15 1006.8F
DIAMOND SHLS NC  2150   72 73  210/ 17/ 21 1007.5F   6/ 7   3/ 7
CAPE LOOKOUT NC  2200   68     200/ 10/ 14 1007.6R
$$



USA.gov is the U.S. government's official web portal to all federal, state and local government web resources and services.